Location: Bacharowice
(49.9333°N, 19.5833°E)
Time: 23:23:03
(UTC+00:00)

Cosmos 1844 - Pass Details

Date: 11 May 2021
Orbit: 824 x 866 km, 70.9° (Epoch: 21 June)

Event Time Altitude Azimuth Distance (km) Brightness Sun altitude
Rises 19:08:30 0° 213° (SSW) 3,418 6.8 -7.8°
Reaches altitude 10° 19:10:58 10° 215° (SW) 2,479 6.1 -8.1°
Maximum altitude 19:16:40 74° 300° (WNW) 883 4.0 -8.8°
Drops below altitude 10° 19:22:20 10° 27° (NNE) 2,466 6.3 -9.5°
Sets 19:24:47 0° 29° (NNE) 3,398 7.0 -9.7°
